📊 Raw Sensor Data

Showing records 52426 to 52450 of 85,285 total

ID Distance (ft) Battery V Battery A Int Temp (°F) Int Humid (%) Ext Temp (°F) Solar V RSSI SNR Time Stamp
32872 13.6 3.80 -5 48 38 49 0.00 -79 7 02/19/2025 11:15 PM
32871 13.5 3.85 -5 47 38 49 0.00 -81 5 02/19/2025 11:00 PM
32870 13.5 3.80 -5 47 38 48 0.00 -80 6 02/19/2025 10:45 PM
32869 13.6 3.85 -5 46 38 47 0.00 -80 7 02/19/2025 10:30 PM
32868 13.6 3.81 -5 46 39 47 0.00 -81 7 02/19/2025 10:15 PM
32867 13.6 3.81 -5 47 38 47 0.00 -79 7 02/19/2025 10:00 PM
32866 13.6 3.81 -5 48 38 48 0.00 -79 7 02/19/2025 09:45 PM
32865 13.6 3.85 -5 48 38 50 0.00 -78 8 02/19/2025 09:30 PM
32864 13.6 3.81 -5 48 38 49 0.10 -79 7 02/19/2025 09:15 PM
32863 13.6 3.81 -5 48 38 48 0.00 -78 6 02/19/2025 09:00 PM
32862 13.5 3.81 -5 48 39 50 0.00 -78 8 02/19/2025 08:45 PM
32861 13.5 3.81 -5 48 39 50 0.00 -78 4 02/19/2025 08:30 PM
32860 13.5 3.86 -5 48 39 50 0.00 -78 7 02/19/2025 08:15 PM
32859 13.5 3.81 -5 48 39 50 0.00 -78 6 02/19/2025 08:00 PM
32858 13.5 3.86 -5 48 39 49 0.10 -78 8 02/19/2025 07:45 PM
32857 13.5 3.81 -5 48 39 50 0.00 -78 7 02/19/2025 07:30 PM
32856 13.5 3.86 -5 48 40 50 0.00 -78 6 02/19/2025 07:15 PM
32855 13.5 3.81 -5 49 40 50 0.00 -78 7 02/19/2025 07:00 PM
32854 13.5 3.86 -5 50 40 51 0.00 -78 7 02/19/2025 06:45 PM
32853 13.5 3.81 -5 51 41 52 0.00 -78 4 02/19/2025 06:30 PM
32852 13.5 3.81 -5 52 41 53 0.00 -78 7 02/19/2025 06:15 PM
32851 13.5 3.86 -5 54 41 54 1.90 -78 7 02/19/2025 06:00 PM
32850 13.5 3.87 0 56 41 55 4.50 -78 5 02/19/2025 05:45 PM
32849 13.5 3.88 0 58 41 55 4.50 -78 6 02/19/2025 05:30 PM
32848 13.5 3.89 9 62 39 56 4.50 -78 6 02/19/2025 05:15 PM